Terminal Aerodrome Forecast
Issued by NWS

Home | Current Version | Previous Version | Graphics & Text | Print | Product List | Glossary On
Versions: 1 2 3 4 5 6 7 8 9 10 11 12 13 14 15 16 17 18 19 20 21 22 23 24
000
FTUS45 KGGW 271400 AAA
TAFGDV
TAF AMD
KGDV 271410Z 2714/2812 36008KT P6SM SCT020
      TEMPO 2714/2716 BKN020
     FM272000 VRB04KT P6SM SKC
      AMD LTD TO CLD VIS AND WIND=

USA.gov is the U.S. government's official web portal to all federal, state and local government web resources and services.